FW4495 Weather Reports


time (UTC)temp
C
wind
direction
speed
KPH
gust
KPH
rain 1hr
cm
rain 24hr
cm
rain mn
cm
humidity
%
barometer
mb
20260505024534 16 230 1.6 6.4 0.00 0.00 0.00 76 1011.8
20260505023033 16 221 0.0 4.8 0.00 0.00 0.00 74 1011.7
20260505021520 16 218 1.6 4.8 0.00 0.00 0.00 71 1011.7
20260505020019 17 215 1.6 4.8 0.00 0.00 0.00 68 1011.5
20260505014531 17 219 0.0 3.2 0.00 0.00 0.00 67 1011.7
20260505013017 17 217 1.6 4.8 0.00 0.00 0.00 66 1011.5
20260505011516 17 215 0.0 3.2 0.00 0.00 0.00 68 1011.3
20260505010019 17 223 1.6 6.4 0.00 0.00 0.00 68 1011.2
20260505004518 17 181 0.0 4.8 0.00 0.00 0.00 68 1011.1
20260505003014 17 178 1.6 4.8 0.00 0.00 0.00 68 1011.0
20260505001514 18 178 0.0 4.8 0.00 0.00 0.00 67 1011.1
20260505000015 18 176 0.0 3.2 0.00 0.00 0.00 65 1010.9
20260504234512 19 176 0.0 4.8 0.00 0.00 0.00 63 1011.0
20260504233012 20 165 0.0 8.0 0.00 0.00 0.00 61 1010.8
20260504231509 20 127 1.6 4.8 0.00 0.00 0.00 59 1010.9
20260504230010 20 242 1.6 11.3 0.00 0.00 0.00 56 1010.9
20260504224508 20 155 3.2 19.3 0.00 0.00 0.00 53 1010.8
20260504223007 20 110 3.2 17.7 0.00 0.00 0.00 51 1010.9
20260504221510 21 93 8.0 16.1 0.00 0.00 0.00 48 1010.9
20260504220007 21 173 9.7 24.1 0.00 0.00 0.00 47 1010.9
20260504214505 21 162 8.0 20.9 0.00 0.00 0.00 48 1010.9
20260504213004 21 154 8.0 20.9 0.00 0.00 0.00 47 1011.0
20260504211513 21 240 6.4 20.9 0.00 0.00 0.00 48 1011.0
20260504210003 21 155 4.8 20.9 0.00 0.00 0.00 47 1011.0
20260504204501 22 146 8.0 16.1 0.00 0.00 0.00 45 1011.1
20260504203001 22 187 4.8 25.7 0.00 0.00 0.00 46 1011.0
20260504201559 22 109 6.4 20.9 0.00 0.00 0.00 44 1011.1
20260504200059 24 211 6.4 17.7 0.00 0.00 0.00 39 1011.3
20260504194555 23 162 6.4 20.9 0.00 0.00 0.00 37 1011.4
20260504193053 23 230 4.8 17.7 0.00 0.00 0.00 38 1011.8
20260504191553 23 236 4.8 9.7 0.00 0.00 0.00 40 1012.1
20260504190053 23 166 6.4 19.3 0.00 0.00 0.00 39 1012.2
20260504184545 21 107 8.0 20.9 0.00 0.00 0.00 49 1012.4
20260504183042 22 163 1.6 14.5 0.00 0.00 0.00 46 1012.6
20260504181540 22 147 8.0 24.1 0.00 0.00 0.00 44 1012.8
20260504180039 21 111 8.0 20.9 0.00 0.00 0.00 47 1013.0
20260504174538 22 192 3.2 14.5 0.00 0.00 0.00 44 1013.1
20260504173039 22 235 6.4 19.3 0.00 0.00 0.00 39 1013.4
20260504171537 22 206 3.2 8.0 0.00 0.00 0.00 42 1013.6
20260504081547 11 194 3.2 11.3 0.00 0.00 0.00 62 1016.0
20260504044525 9 236 0.0 3.2 0.00 0.00 0.00 65 1016.5
20260504043023 10 236 0.0 6.4 0.00 0.00 0.00 61 1016.4
20260504041536 10 235 0.0 6.4 0.00 0.00 0.00 58 1016.5
20260504040022 10 236 1.6 6.4 0.00 0.00 0.00 59 1016.5
20260504034516 9 242 1.6 9.7 0.00 0.00 0.00 60 1016.4
20260504033017 8 231 0.0 4.8 0.00 0.00 0.00 65 1016.3
20260504031517 8 279 0.0 4.8 0.00 0.00 0.00 68 1016.1
20260504030016 7 294 0.0 3.2 0.00 0.00 0.00 71 1016.1